Regional Weather Roundup
Issued by NWS Kansas City/Pleasant Hill, MO

Home | Current Version | Previous Version | Graphics & Text | Print | Product List | Glossary Off
Versions: 1 2 3 4 5 6 7 8 9 10 11 12 13 14 15 16 17 18 19 20 21 22 23 24 25 26 27

000
ASUS43 KEAX 291110
RWREAX

WEATHER ROUNDUP FOR EASTERN KANSAS AND NORTHWEST MISSOURI
NATIONAL WEATHER SERVICE KANSAS CITY/PLEASANT HILL MO
600 AM CDT FRI JUL 29 2016

KSZ040-057-103>105-MOZ028-029-037-043-291200-
...KANSAS CITY METROPOLITAN AREA...

CITY           SKY/WX    TMP DP  RH WIND       PRES   REMARKS
K.C. INTL      PTCLDY    69  62  78 NE7       29.97R
K.C. DOWNTOWN  CLEAR     72  64  76 E7        29.95R
LEES SUMMIT    CLEAR     69  66  90 CALM      29.97R
OLATHE - IXD   CLEAR     67  67 100 NW7       29.98R
OLATHE - OJC   CLEAR     69  67  93 N3        29.97R
LAWRENCE       PTCLDY    66  65  96 NW3       29.97R

$$

MOZ001>008-011>017-020>025-030>033-038>040-044>046-053-054-291200-
...NORTHERN AND CENTRAL MISSOURI...

CITY           SKY/WX    TMP DP  RH WIND       PRES   REMARKS
ST. JOSEPH     PTCLDY    66  64  93 CALM      29.97R
MOSBY          SUNNY     66  64  94 CALM      29.97R
WHITEMAN AFB   PTCLDY    70  70 100 NE5       29.93R
CLINTON        CLEAR     68  68 100 CALM      29.94R
SEDALIA        PTCLDY    72  69  90 CALM      29.95R
WARSAW         NOT AVBL
CHILLICOTHE      N/A     68  64  87 CALM      29.97R
KIRKSVILLE     CLOUDY    65  62  90 N5        29.96S

$$

MOZ041-047>049-056>058-063>065-088>090-097-291200-
...EASTERN AND SOUTHERN MISSOURI...

CITY           SKY/WX    TMP DP  RH WIND       PRES   REMARKS
ST. LOUIS INTL PTCLDY    74  69  85 CALM      29.92F
SPIRIT OF STL  PTCLDY    71  69  93 CALM      29.91S
COLUMBIA       CLOUDY    69  68  96 CALM      29.94S
JEFFERSON CITY PTCLDY    71  69  93 N3        29.93R
ROLLA          CLEAR     67  66  97 NE3       29.93S
OSAGE BEACH    CLEAR     69  68  96 CALM      29.95R FOG
SPRINGFIELD    CLOUDY    71  68  90 CALM      29.95R
BRANSON        PTCLDY    70  68  94 CALM      29.96R
JOPLIN         CLEAR     68  66  93 CALM      29.97R
WEST PLAINS    CLEAR     67  64  90 CALM      29.96S

$$

IAZ060-094-KSZ022-034>040-054-083-096-NEZ052-066-093-291200-
...KANSAS...SOUTHEAST NEBRASKA AND IOWA...

CITY           SKY/WX    TMP DP  RH WIND       PRES   REMARKS
TOPEKA         PTCLDY    67  65  93 CALM      29.98R
MANHATTAN      CLOUDY    68  67  96 W3        29.99R
EMPORIA        CLOUDY    68  66  93 CALM      29.99R
CHANUTE        CLOUDY    69  67  93 NW3       29.98R
WICHITA        CLOUDY    71  68  90 W5        29.99R
OMAHA          CLOUDY    67  63  87 N5        30.01R
LINCOLN        CLOUDY    67  65  93 CALM      30.01S
FALLS CITY     CLOUDY    67  65  93 N5        29.98R
LAMONI         CLEAR     63  63 100 N7        29.97S
DES MOINES     CLOUDY    66  62  87 N8        29.95F

$$





USA.gov is the U.S. government's official web portal to all federal, state and local government web resources and services.